Regional Weather Roundup
Issued by NWS

Home | Current Version | Previous Version | Text Only | Print | Product List | Glossary On
Versions: 1 2 3 4 5 6 7 8 9 10 11 12 13 14 15 16 17 18 19 20 21 22 23 24 25 26 27 28 29 30 31 32 33 34 35 36 37 38 39 40 41 42 43 44 45 46 47 48 49 50
000
ASUS43 KMPX 261301
RWRMN
WEATHER ROUNDUP FOR MINNESOTA
NATIONAL WEATHER SERVICE TWIN CITIES/CHANHASSEN MN
800 AM CDT THU APR 26 2018


NOTE: "FAIR" INDICATES FEW OR NO CLOUDS BELOW 12,000 FEET WITH NO
SIGNIFICANT WEATHER AND/OR OBSTRUCTIONS TO VISIBILITY. N/A MEANS
CURRENT SKY AND/OR WEATHER CONDITIONS ARE NOT AVAILABLE.

MNZ060>063-068>070-261400-
   Twin Cities Metro

CITY           SKY/WX    TMP DP  RH WIND       PRES   REMARKS
TWIN CITIES    PTSUNNY   49  35  58 SW6       29.87S
ST PAUL        FAIR      45  37  73 SE8       29.89R
CRYSTAL        FAIR      48  33  56 SW8       29.85S
BLAINE         PTSUNNY   48  36  61 S8        29.85F
LAKEVILLE      FAIR      45  36  70 CALM      29.88S
EDEN PRAIRIE   FAIR      46  35  65 S9        29.86S
SOUTH ST PAUL  FAIR      45  35  67 S3        29.88S
LAKE ELMO      FAIR      43  36  75 S6        29.89R
$$
MNZ001>005-007-008-013>017-022>024-027-028-261400-
   Northwest Minnesota

CITY           SKY/WX    TMP DP  RH WIND       PRES   REMARKS
BEMIDJI        FAIR      43  33  68 NW16      29.89R
HALLOCK        FAIR      39  28  65 N22       30.02R
ROSEAU         FAIR      39  32  75 NW14      29.96R
WARROAD        FAIR      39  32  75 NW12      29.95R
THIEF RVR FALL FAIR      40  30  67 NW21      29.97R
CROOKSTON      FAIR      39  30  70 N18       30.00R
FOSSTON        FAIR      41  28  60 NW14      29.94R
DETROIT LAKES  FAIR      41  34  75 N15       29.94R
MOORHEAD       FAIR      43  32  65 N20       29.98R
PARK RAPIDS    FAIR      46  34  62 N16G25    29.88R
MAHNOMEN       FAIR      40  32  73 N15       29.93R
$$
MNZ006-009>011-018-025>026-261400-
   North Central Minnesota

CITY           SKY/WX    TMP DP  RH WIND       PRES   REMARKS
BAUDETTE       FAIR      42  35  76 N15G23    29.90R
FLAG ISLAND    FAIR      37  32  81 NW15      29.92R
INTL FALLS     CLOUDY    43  36  76 N15       29.85R
WASKISH        FAIR      43  36  75 N10       29.89R
BIG FORK       FAIR      45  36  70 N9        29.83R
LONGVILLE      FAIR      43  34  70 NW5       29.84R
GRAND RAPIDS   CLOUDY    42  33  70 NW14      29.84R
CRANE LAKE     FAIR      39  34  81 N6        29.83R
ORR            PTSUNNY   41  30  65 NW7       29.79R
COOK           FAIR      43  30  61 NW7       29.80R
WALKER         FAIR      44  33  66 N13G18    29.87R
$$
MNZ012-019>021-037-261400-
   Northeast Minnesota

CITY           SKY/WX    TMP DP  RH WIND       PRES   REMARKS
DULUTH         FAIR      45  31  58 W13       29.78S
ELY            FAIR      43  28  56 W7        29.78R
HIBBING        CLOUDY    35  29  78 CALM      29.78R
EVELETH        FAIR      39  29  67 CALM      29.79R
DULUTH HARBOR  FAIR      45  34  65 SW10      29.81S
TWO HARBORS    FAIR      43  34  70 CALM      29.76F
SILVER BAY     FAIR      39  30  70 CALM      29.75F
GRAND MARAIS     N/A     34  28  79 SW5       29.77F WCI  30
G MARAIS ARPRT FAIR      41  21  45 CALM      29.75F
$$
MNZ029>031-032-039>041-046>048-054>057-064-261400-
   West Central Minnesota

CITY           SKY/WX    TMP DP  RH WIND       PRES   REMARKS
FERGUS FALLS   FAIR      45  34  65 N15G21    29.90R
WHEATON        SUNNY     45  34  65 NW15G24   29.96R
MORRIS         MOSUNNY   41  36  81 N15       29.89R
ALEXANDRIA     FAIR      46  34  62 N13       29.87R
ELBOW LAKE     FAIR      44  36  73 N14G20    29.91R
WADENA         FAIR      45  34  65 N13       29.88R
GLENWOOD       FAIR      43  34  70 NW9       29.87R
APPLETON       PTSUNNY   45  36  70 N14       29.88R
BENSON         PTSUNNY   43  36  75 N13       29.88R
ORTONVILLE     CLOUDY    43  36  75 N21G30    29.91R
WILLMAR        FAIR      41  36  81 SW6       29.87R
$$
MNZ033>034-036-042>043-049>051-058-059-261400-
   Central Minnesota

CITY           SKY/WX    TMP DP  RH WIND       PRES   REMARKS
ST CLOUD       FAIR      42  34  73 CALM      29.84R
SAUK CENTRE    FAIR      43  33  68 W7        29.85R
PAYNESVILLE    FAIR      45  35  70 W5        29.85R
AITKIN         FAIR      43  30  61 W6        29.81S
PINE RIVER     FAIR      43  34  70 N10       29.88R
BRAINERD       PTSUNNY   45  31  58 NW8       29.84R
STAPLES        FAIR      43  34  70 N13       29.86R
LONG PRAIRIE   FAIR      43  32  65 W12       29.85R
LITTLE FALLS   PTSUNNY   41  28  60 CALM      29.85R
LITCHFIELD     FAIR      45  36  70 SW5       29.85S
BUFFALO        FAIR      44  33  65 S5        29.86S
MAPLE LAKE     FAIR      44  36  73 S3        29.85S
HUTCHINSON     FAIR      42  37  80 S6        29.86S
$$
MNZ037-044-045-052-053-261400-
   East Central Minnesota

CITY           SKY/WX    TMP DP  RH WIND       PRES   REMARKS
PRINCETON      FAIR      46  36  66 SW6       29.84R
MORA           FAIR      41  32  70 W3        29.85R
CAMBRIDGE      FAIR      46  34  61 SW8       29.84F
RUSH CITY      FAIR      43  34  69 S8        29.83F
MOOSE LAKE     FAIR      37  32  81 SW5       29.81R
HINCKLEY       FAIR      41  36  81 SW3       29.83S
CLOQUET        FAIR      43  28  56 SW9       29.80R
MCGREGOR       FAIR      45  32  61 W7        29.82R
$$
MNZ071>073-080-081-089-090-097-098-261400-
   Southwest Minnesota

CITY           SKY/WX    TMP DP  RH WIND       PRES   REMARKS
MONTEVIDEO     CLOUDY    45  36  70 N10       29.86R
GRANITE FALLS  CLOUDY    44  37  76 W10       29.87S
CANBY          CLOUDY    46  36  68 W15G22    29.90R
MARSHALL       CLOUDY    46  35  65 W14       29.88R
REDWOOD FALLS  CLOUDY    43  35  73 SW6       29.86R
OLIVIA         MOSUNNY   41  36  81 SW6       29.85S
PIPESTONE      CLOUDY   N/A N/A N/A W7        29.89R
WINDOM         PTSUNNY   46  27  46 SW10      29.88R
WORTHINGTON    CLOUDY    46  34  62 SW17      29.88R
JACKSON        CLOUDY    43  34  70 SW12      29.89S
TRACY          CLOUDY    46  37  70 W12       29.87R
SLAYTON        PTSUNNY   43  34  68 SW14G20   29.88R
$$
MNZ065>067-074>077-082>085-091>093-261400-
   South Central Minnesota

CITY           SKY/WX    TMP DP  RH WIND       PRES   REMARKS
MANKATO        FAIR      44  35  70 S8        29.89S
NEW ULM        CLOUDY    43  34  70 SW5       29.88R
ST JAMES       CLOUDY    43  36  75 S7        29.88F
FAIRMONT       CLOUDY    44  35  70 SW7       29.90S
GLENCOE        FAIR      43  37  77 S8        29.85S
OWATONNA       FAIR      45  37  76 SW8       29.91R
WASECA         FAIR      43  36  75 S12       29.91S
ALBERT LEA     FAIR      43  34  70 SW6       29.92R
$$
MNZ078>079-086>088-094>096-261400-
   Southeast Minnesota

CITY           SKY/WX    TMP DP  RH WIND       PRES   REMARKS
ROCHESTER      FAIR      41  36  82 SW5       29.92R
RED WING       FAIR      43  34  70 CALM      29.89S
STANTON        FAIR      45  37  74 SW9       29.88F
DODGE CENTER   FAIR      43  36  75 SW9       29.91R
WINONA         FAIR      39  34  81 CALM      29.91R
AUSTIN         FAIR      43  36  75 SW6       29.92R
PRESTON        FAIR      42  33  71 SW8       29.92S
$$
ABBREVIATIONS USED IN REMARKS
   TC - TEMPERATURES IN CELSIUS
  WCI - WIND CHILL INDEX
   HX - HEAT INDEX
  VSB - VISIBILITY
$$




USA.gov is the U.S. government's official web portal to all federal, state and local government web resources and services.